Regional Weather Roundup
Issued by NWS

Home | Current Version | Previous Version | Text Only | Print | Product List | Glossary Off
Versions: 1 2 3 4 5 6 7 8 9 10 11 12 13 14 15 16 17 18 19 20 21 22 23 24 25 26 27 28 29 30 31 32 33 34 35 36 37 38 39 40 41 42 43 44 45 46 47 48 49 50

000
ASUS43 KMPX 300301
RWRMN
WEATHER ROUNDUP FOR MINNESOTA
NATIONAL WEATHER SERVICE TWIN CITIES/CHANHASSEN MN
1000 PM CDT SUN MAY 29 2016


NOTE: "FAIR" INDICATES FEW OR NO CLOUDS BELOW 12,000 FEET WITH NO
SIGNIFICANT WEATHER AND/OR OBSTRUCTIONS TO VISIBILITY. N/A MEANS
CURRENT SKY AND/OR WEATHER CONDITIONS ARE NOT AVAILABLE.

MNZ060>063-068>070-300400-
   Twin Cities Metro

CITY           SKY/WX    TMP DP  RH WIND       PRES   REMARKS
TWIN CITIES    CLEAR     70  56  61 W6        29.96R
ST PAUL        CLEAR     64  58  80 CALM      29.96R
CRYSTAL        CLEAR     63  56  78 CALM      29.95R
BLAINE         CLEAR     63  63 100 CALM      29.96R
EDEN PRAIRIE   CLEAR     68  56  65 SW3       29.96R
SOUTH ST PAUL  CLEAR     66  57  71 SW3       29.96R
LAKE ELMO      FAIR      63  61  94 CALM      29.97R
$$
MNZ001>005-007-008-013>017-022>024-027-028-300400-
   Northwest Minnesota

CITY           SKY/WX    TMP DP  RH WIND       PRES   REMARKS
BEMIDJI        CLEAR     58  50  75 CALM      29.94R
HALLOCK        CLEAR     63  54  72 CALM      29.90R
ROSEAU         CLEAR     63  54  72 W3        29.91R
WARROAD        CLEAR     59  54  82 W5        29.91R
THIEF RVR FALL CLEAR     61  52  72 CALM      29.94R
CROOKSTON      PTCLDY    63  54  72 CALM      29.93R
FOSSTON        CLEAR     55  54  94 CALM      29.95R
DETROIT LAKES  CLEAR     63  50  63 CALM      29.96S
MOORHEAD       CLEAR     64  52  63 CALM      29.94R
PARK RAPIDS    CLEAR     61  53  75 CALM      29.95R
MAHNOMEN       FAIR      64  50  61 CALM      29.94R
$$
MNZ006-009>011-018-025>026-300400-
   North Central Minnesota

CITY           SKY/WX    TMP DP  RH WIND       PRES   REMARKS
BAUDETTE       CLEAR     58  50  75 W3        29.90R
FLAG ISLAND    CLEAR     61  54  77 W5        29.89R HAZE
INTL FALLS     MOCLDY    58  53  84 W3        29.89R
WASKISH        CLEAR     63  55  77 W5        29.92R
BIG FORK       CLEAR     54  52  94 CALM      29.93R
LONGVILLE      CLEAR     55  54  94 CALM      29.95R
GRAND RAPIDS   CLEAR     58  53  84 S3        29.95R
CRANE LAKE     PTCLDY    52  52 100 CALM      29.91R
ORR            CLEAR     55  54  94 CALM      29.88R
COOK           CLEAR     59  55  88 CALM      29.91R
WALKER         FAIR      55  51  87 CALM      29.95R
$$
MNZ012-019>021-037-300400-
   Northeast Minnesota

CITY           SKY/WX    TMP DP  RH WIND       PRES   REMARKS
DULUTH         PTCLDY    59  51  75 W7        29.93R
ELY            PTCLDY    55  54  94 CALM      29.90R
HIBBING        CLEAR     57  52  83 W5        29.92R
EVELETH        CLEAR     57  50  77 SW5       29.93R
DULUTH HARBOR  CLEAR     63  55  77 SW5       29.92R
TWO HARBORS    CLEAR     59  54  82 CALM      29.90R
SILVER BAY     CLEAR     55  54  94 CALM      29.89R
GRAND MARAIS     N/A     47  45  93 W7        29.86R
G MARAIS ARPRT CLEAR     55  48  76 W6        29.88R
$$
MNZ029>031-032-039>041-046>048-054>057-064-300400-
   West Central Minnesota

CITY           SKY/WX    TMP DP  RH WIND       PRES   REMARKS
FERGUS FALLS   CLEAR     66  45  45 CALM      29.92R
WHEATON        PTCLDY    70  48  46 CALM      29.97R
MORRIS         CLEAR     64  46  52 CALM      29.96R
ALEXANDRIA     CLEAR     61  48  62 CALM      29.98R
ELBOW LAKE     FAIR      66  48  52 W3        29.96R
WADENA         CLEAR     57  52  82 CALM      29.96R
GLENWOOD       CLEAR     63  52  67 CALM      29.98R
APPLETON       CLEAR     64  45  48 CALM      29.96R
BENSON         CLEAR     63  46  55 CALM      29.96
ORTONVILLE     CLEAR     70  45  40 CALM      29.96R
MADISON        CLEAR     64  48  55 CALM      29.97R
WILLMAR        FAIR      66  52  59 CALM      29.99R
$$
MNZ033>034-036-042>043-049>051-058-059-300400-
   Central Minnesota

CITY           SKY/WX    TMP DP  RH WIND       PRES   REMARKS
ST CLOUD       CLEAR     62  55  77 CALM      29.96R
SAUK CENTRE    FAIR      60  49  66 CALM      29.97R
PAYNESVILLE    CLEAR     62  52  70 CALM      29.98R
AITKIN         CLEAR     55  50  82 CALM      29.95R
PINE RIVER     CLEAR     57  54  88 CALM      29.99R
BRAINERD       CLEAR     59  55  87 CALM      29.96R
STAPLES        CLEAR     57  52  82 CALM      29.96R
LONG PRAIRIE   FAIR      61  52  72 CALM      29.97R
LITTLE FALLS   CLEAR     59  54  82 CALM      29.97R
LITCHFIELD     CLEAR     64  55  72 CALM      29.98R
BUFFALO        CLEAR     64  57  76 CALM      29.98R
MAPLE LAKE     CLEAR     63  59  88 CALM      29.97R
HUTCHINSON     CLEAR     64  61  90 CALM      29.99R
$$
MNZ037-044-045-052-053-300400-
   East Central Minnesota

CITY           SKY/WX    TMP DP  RH WIND       PRES   REMARKS
PRINCETON      CLEAR     61  55  82 CALM      29.96R
MORA           CLEAR     61  52  72 CALM      29.97R
CAMBRIDGE      PTCLDY    64  54  68 CALM      29.94R
RUSH CITY      MOCLDY    59  55  87 CALM      29.95R
MOOSE LAKE     MOCLDY    55  54  94 CALM      29.93R
HINCKLEY       MOCLDY    61  59  94 CALM      29.95R
CLOQUET        CLEAR     59  52  77 W5        29.94R
MCGREGOR       PTCLDY    63  52  67 W3        29.95R
$$
MNZ071>073-080-081-089-090-097-098-300400-
   Southwest Minnesota

CITY           SKY/WX    TMP DP  RH WIND       PRES   REMARKS
MONTEVIDEO     CLEAR     66  45  45 W3        29.99R
GRANITE FALLS  CLEAR     67  49  52 CALM      30.00R
CANBY          CLEAR     66  54  66 SW5       30.00R
MARSHALL       CLEAR     65  52  62 SW7       30.00R
REDWOOD FALLS  CLEAR     70  44  39 W3        29.98R
OLIVIA         CLEAR     64  50  59 CALM      29.98R
PIPESTONE      CLEAR     66  54  63 CALM      30.04R
WINDOM         CLEAR     64  54  68 CALM      30.02R
WORTHINGTON    CLEAR     66  52  60 SW6       30.04R
JACKSON        CLEAR     64  50  59 CALM      30.04R
TRACY          CLEAR     66  53  61 SW5       30.01R
SLAYTON        CLEAR     66  51  59 SW5       30.04R
$$
MNZ065>067-074>077-082>085-091>093-300400-
   South Central Minnesota

CITY           SKY/WX    TMP DP  RH WIND       PRES   REMARKS
MANKATO        CLEAR     68  57  68 CALM      29.99R
NEW ULM        CLEAR     66  52  59 NW6       29.99R
ST JAMES       CLEAR     61  52  72 SW3       30.01R
FAIRMONT       CLEAR     68  48  49 W7        30.01R
GLENCOE        CLEAR     65  62  91 CALM      29.97R
FARIBAULT      CLEAR     61  61 100 CALM      29.99R
OWATONNA       CLEAR     64  59  82 CALM      30.00R
WASECA         CLEAR     63  55  77 CALM      30.01R
ALBERT LEA     CLEAR     66  55  68 CALM      30.00R
$$
MNZ078>079-086>088-094>096-300400-
   Southeast Minnesota

CITY           SKY/WX    TMP DP  RH WIND       PRES   REMARKS
ROCHESTER      PTCLDY    67  59  75 NW5       30.00R
RED WING       CLEAR     66  57  72 CALM      29.95R
STANTON        CLEAR     64  59  86 CALM      29.96R
DODGE CENTER   CLEAR     64  57  77 CALM      30.00R
WINONA         PTCLDY    66  61  82 CALM      29.97R
AUSTIN         CLEAR     66  52  59 CALM      30.00R
PRESTON        CLEAR     67  58  73 SW3       30.01R
$$
ABBREVIATIONS USED IN REMARKS
   TC - TEMPERATURES IN CELSIUS
  WCI - WIND CHILL INDEX
   HX - HEAT INDEX
  VSB - VISIBILITY
$$



USA.gov is the U.S. government's official web portal to all federal, state and local government web resources and services.